Regional Weather Roundup
Issued by NWS

Home | Current Version | Previous Version | Graphics & Text | Print | Product List | Glossary On
Versions: 1 2 3 4 5 6 7 8 9 10 11 12 13 14 15 16 17 18 19 20 21 22 23 24 25 26 27 28 29 30 31 32 33 34 35 36 37 38 39 40 41 42 43 44 45 46 47 48 49 50
000
ASUS43 KOAX 231210
RWRNE

WEATHER ROUNDUP FOR NEBRASKA
NATIONAL WEATHER SERVICE OMAHA NE
600 AM CST MON JAN 23 2017

NOTES: SATELLITE DATA IS BEING USED TO AUGMENT CLOUD COVER ABOVE
       12000 FEET.
       "FAIR" INDICATES FEW OR NO CLOUDS BELOW 12,000 FEET WITH NO
       SIGNIFICANT WEATHER AND/OR OBSTRUCTIONS TO VISIBILITY.

  * THESE STATIONS DO NOT REPORT WEATHER SUCH AS RAIN...SNOW OR FOG.

NEZ001>004-019>022-054>056-231300-
NEBRASKA PANHANDLE

CITY           SKY/WX    TMP DP  RH WIND       PRES   REMARKS
SCOTTSBLUFF    CLOUDY    28  21  75 E5        29.68F WCI  23
6HR MIN TEMP:  23; 6HR MAX TEMP:  28;

ALLIANCE       CLOUDY    28  22  78 S7        29.69F WCI  21
6HR MIN TEMP:  17; 6HR MAX TEMP:  28;

CHADRON        CLOUDY    26  19  74 S6        29.68F WCI  19
6HR MIN TEMP:  18; 6HR MAX TEMP:  26;

KIMBALL        CLOUDY    31  23  71 S3        29.66F
SIDNEY         CLOUDY    31  21  66 SE10      29.68F WCI  22
6HR MIN TEMP:  24; 6HR MAX TEMP:  33;

$$

NEZ057>060-069>072-079>082-231300-
SOUTHWEST NEBRASKA

CITY           SKY/WX    TMP DP  RH WIND       PRES   REMARKS
NORTH PLATTE   MOCLDY    23  19  85 CALM      29.79F
6HR MIN TEMP:  19; 6HR MAX TEMP:  24;

IMPERIAL       PTCLDY    30  25  81 SE6       29.76F WCI  24
6HR MIN TEMP:  27; 6HR MAX TEMP:  33;

LEXINGTON      CLOUDY    27  25  92 CALM      29.82R
MCCOOK         PTCLDY    24  22  91 CALM      29.80F
6HR MIN TEMP:  22; 6HR MAX TEMP:  28;

OGALLALA       CLOUDY    30  27  86 CALM      29.74F
$$

NEZ005>010-023>029-035>040-094-231300-
NORTH CENTRAL NEBRASKA

CITY           SKY/WX    TMP DP  RH WIND       PRES   REMARKS
VALENTINE      PTCLDY    19  16  88 NE3       29.77F
6HR MIN TEMP:  16; 6HR MAX TEMP:  21;

AINSWORTH      PTCLDY    21  21  98 CALM      29.79R
BROKEN BOW     CLEAR     27  25  92 CALM      29.81R
6HR MIN TEMP:  24; 6HR MAX TEMP:  28;

O`NEILL        FOG       26  26  99 CALM      29.85R VSB 1
ORD            CLOUDY    21  18  88 CALM      29.84S
6HR MIN TEMP:  19; 6HR MAX TEMP:  25;

THEDFORD       CLOUDY    25  23  94 CALM      29.78F
$$

NEZ041-046>049-061>064-073>077-083>087-231300-
SOUTH CENTRAL NEBRASKA

CITY           SKY/WX    TMP DP  RH WIND       PRES   REMARKS
GRAND ISLAND   PTCLDY    25  25 100 E8        29.86F WCI  16
6HR MIN TEMP:  22; 6HR MAX TEMP:  29;

AURORA         CLOUDY    26  26 100 E7        29.87S WCI  18
HASTINGS       PTCLDY    29  25  85 E7        29.85F WCI  22
6HR MIN TEMP:  25; 6HR MAX TEMP:  32;

HEBRON         PTCLDY    23  23  99 E3        29.88F
HOLDREGE       CLEAR     27  23  86 SE6       29.83R WCI  20
KEARNEY *      CLEAR     27  23  86 CALM      29.84R
YORK           FOG       27  27 100 E6        29.89S VSB 1/2 WCI  20
$$

NEZ011>018-030>034-042>045-231300-
NORTHEAST NEBRASKA

CITY           SKY/WX    TMP DP  RH WIND       PRES   REMARKS
NORFOLK        CLOUDY    29  24  82 CALM      29.86S
6HR MIN TEMP:  29; 6HR MAX TEMP:  29;

ALBION         CLOUDY    27  24  89 CALM      29.87S FOG
BLAIR          CLOUDY    32  28  86 NW7       29.87S WCI  26
FREMONT        CLOUDY    32  30  91 CALM      29.89S
TEKAMAH        CLOUDY    32  28  85 N5        29.88F WCI  27
6HR MIN TEMP:  32; 6HR MAX TEMP:  33;

WAYNE          CLOUDY    31  28  90 CALM      29.86S
$$

NEZ050>053-065>068-078-088>093-231300-
SOUTHEAST NEBRASKA

CITY           SKY/WX    TMP DP  RH WIND       PRES   REMARKS
LINCOLN        CLOUDY    30  27  88 CALM      29.91F
6HR MIN TEMP:  21; 6HR MAX TEMP:  30;

OMAHA EPPLEY   CLOUDY    32  26  78 NW7       29.89S WCI  26
6HR MIN TEMP:  31; 6HR MAX TEMP:  32;

BEATRICE       CLOUDY    29  29  99 E5        29.90F FOG     WCI  24
FALLS CITY     CLOUDY    31  29  92 N6        29.91R FOG     WCI  25
6HR MIN TEMP:  24; 6HR MAX TEMP:  31;

NEBRASKA CITY  CLOUDY    31  28  90 N6        29.89S WCI  25
PLATTSMOUTH    CLOUDY    31  26  82 NW7       29.89S WCI  24
$$

NEZ044-045-051>053-067-231300-
OMAHA AREA

CITY           SKY/WX    TMP DP  RH WIND       PRES   REMARKS
OMAHA EPPLEY   CLOUDY    32  26  78 NW7       29.89S WCI  26
6HR MIN TEMP:  31; 6HR MAX TEMP:  32;

BLAIR          CLOUDY    32  28  86 NW7       29.87S WCI  26
FREMONT        CLOUDY    32  30  91 CALM      29.89S
MILLARD        CLOUDY    34  29  83 N3        29.89F
OFFUTT AFB     CLOUDY    32  31  99 NW7       29.89F WCI  25
PLATTSMOUTH    CLOUDY    31  26  82 NW7       29.89S WCI  24
WAHOO          CLOUDY    32  28  85 CALM      29.89F
$$




USA.gov is the U.S. government's official web portal to all federal, state and local government web resources and services.